Location: Poughquag
(41.6090°N, 73.6820°W)
Time: 20:55:03
(UTC-05:00)

Transit 2A - Pass Details

Date: 11 December 2023
Orbit: 600 x 953 km, 66.7° (Epoch: 23 February)

Event Time Altitude Azimuth Distance (km) Brightness Sun altitude
Rises 21:54:59 0° 337° (NNW) 2,855 - -60.0°
Reaches altitude 10° 21:57:23 10° 347° (NNW) 1,950 - -60.4°
Maximum altitude 22:01:22 34° 53° (NE) 1,007 - -61.0°
Drops below altitude 10° 22:05:28 10° 119° (ESE) 2,012 - -61.7°
Sets 22:07:58 0° 129° (SE) 2,959 - -62.0°
